TimeCST,TemperatureF,Dew PointF,Humidity,Sea Level PressureIn,VisibilityMPH,Wind Direction,Wind SpeedMPH,Gust SpeedMPH,PrecipitationIn,Events,Conditions,WindDirDegrees,DateUTC
12:15 AM,12.9,0.1,57,30.31,10.0,WNW,17.3,21.9,N/A,,Scattered Clouds,290,2013-02-01 06:15:00
12:35 AM,12.6,-0.8,55,30.33,10.0,West,20.7,31.1,N/A,,Clear,280,2013-02-01 06:35:00
12:55 AM,12.2,-0.4,57,30.34,10.0,WNW,16.1,-,N/A,,Clear,290,2013-02-01 06:55:00
1:15 AM,12.7,1.6,61,30.34,10.0,WNW,12.7,-,N/A,,Mostly Cloudy,290,2013-02-01 07:15:00
1:35 AM,12.9,2.8,64,30.35,10.0,WNW,13.8,-,N/A,,Overcast,290,2013-02-01 07:35:00
1:55 AM,12.4,2.1,64,30.36,10.0,West,17.3,-,N/A,,Mostly Cloudy,270,2013-02-01 07:55:00
2:15 AM,12.2,4.5,71,30.37,7.0,WNW,13.8,-,N/A,,Mostly Cloudy,300,2013-02-01 08:15:00
2:55 AM,11.3,4.6,75,30.38,5.0,WNW,12.7,20.7,N/A,,Haze,290,2013-02-01 08:55:00
3:15 AM,11.7,4.3,72,30.39,5.0,West,17.3,21.9,N/A,Snow,Light Snow,280,2013-02-01 09:15:00
3:35 AM,11.7,3.6,70,30.39,7.0,WNW,17.3,21.9,N/A,Snow,Light Snow,290,2013-02-01 09:35:00
3:55 AM,11.5,2.5,67,30.39,10.0,West,17.3,24.2,N/A,,Mostly Cloudy,280,2013-02-01 09:55:00
4:15 AM,11.3,1.0,63,30.40,7.0,WNW,17.3,21.9,N/A,,Mostly Cloudy,290,2013-02-01 10:15:00
4:55 AM,10.8,0.9,64,30.40,10.0,WNW,12.7,-,N/A,,Scattered Clouds,290,2013-02-01 10:55:00
5:15 AM,10.4,0.5,64,30.40,10.0,WNW,10.4,-,N/A,,Clear,290,2013-02-01 11:15:00
5:35 AM,10.4,1.2,66,30.40,10.0,West,8.1,-,N/A,,Clear,280,2013-02-01 11:35:00
5:55 AM,10.4,0.9,65,30.41,10.0,WNW,9.2,-,N/A,,Clear,290,2013-02-01 11:55:00
6:15 AM,10.2,1.4,68,30.42,10.0,West,8.1,-,N/A,,Clear,280,2013-02-01 12:15:00
6:35 AM,10.0,1.2,68,30.42,10.0,West,8.1,-,N/A,,Clear,280,2013-02-01 12:35:00
6:55 AM,10.0,1.6,69,30.44,10.0,West,6.9,-,N/A,,Clear,270,2013-02-01 12:55:00
7:15 AM,10.4,2.3,70,30.45,10.0,WSW,8.1,-,N/A,,Clear,250,2013-02-01 13:15:00
7:35 AM,11.1,2.8,69,30.46,10.0,WSW,9.2,-,N/A,,Scattered Clouds,250,2013-02-01 13:35:00
7:55 AM,11.5,2.7,68,30.47,10.0,West,10.4,-,N/A,,Mostly Cloudy,260,2013-02-01 13:55:00
8:15 AM,12.0,3.0,67,30.47,10.0,West,15.0,18.4,N/A,,Mostly Cloudy,260,2013-02-01 14:15:00
8:35 AM,11.8,2.5,66,30.47,10.0,West,10.4,13.8,N/A,,Mostly Cloudy,280,2013-02-01 14:35:00
8:55 AM,12.0,2.1,65,30.47,10.0,West,11.5,-,N/A,,Scattered Clouds,280,2013-02-01 14:55:00
9:15 AM,12.6,2.8,65,30.48,10.0,West,10.4,-,N/A,,Scattered Clouds,270,2013-02-01 15:15:00
9:35 AM,14.0,4.6,66,30.49,10.0,WSW,10.4,-,N/A,,Scattered Clouds,250,2013-02-01 15:35:00
9:55 AM,13.8,3.2,63,30.50,10.0,WSW,8.1,-,N/A,,Scattered Clouds,250,2013-02-01 15:55:00
10:15 AM,13.5,3.6,65,30.51,10.0,West,12.7,-,N/A,,Scattered Clouds,270,2013-02-01 16:15:00
10:35 AM,14.2,3.9,64,30.51,10.0,West,6.9,-,N/A,,Scattered Clouds,260,2013-02-01 16:35:00
10:55 AM,15.8,5.2,63,30.51,10.0,SW,9.2,-,N/A,,Mostly Cloudy,230,2013-02-01 16:55:00
11:15 AM,16.7,7.0,66,30.50,10.0,WSW,10.4,-,N/A,,Mostly Cloudy,240,2013-02-01 17:15:00
11:35 AM,16.5,5.5,62,30.49,10.0,WSW,10.4,17.3,N/A,,Mostly Cloudy,250,2013-02-01 17:35:00
11:55 AM,17.6,7.3,64,30.48,10.0,SSW,9.2,-,N/A,,Scattered Clouds,210,2013-02-01 17:55:00
12:15 PM,18.0,6.6,61,30.47,10.0,SW,11.5,-,N/A,,Scattered Clouds,220,2013-02-01 18:15:00
12:35 PM,18.1,5.7,58,30.46,10.0,WSW,9.2,-,N/A,,Scattered Clouds,250,2013-02-01 18:35:00
12:55 PM,19.9,7.7,59,30.46,10.0,SW,9.2,-,N/A,,Scattered Clouds,230,2013-02-01 18:55:00
1:15 PM,20.5,8.6,60,30.44,10.0,SW,10.4,16.1,N/A,,Scattered Clouds,220,2013-02-01 19:15:00
1:35 PM,19.8,7.0,58,30.43,10.0,WSW,5.8,-,N/A,,Scattered Clouds,240,2013-02-01 19:35:00
1:55 PM,20.7,7.3,56,30.43,10.0,SSW,10.4,-,N/A,,Scattered Clouds,200,2013-02-01 19:55:00
2:15 PM,21.4,9.0,59,30.42,10.0,SW,10.4,-,N/A,,Scattered Clouds,220,2013-02-01 20:15:00
2:35 PM,21.4,9.0,59,30.42,10.0,SSW,8.1,-,N/A,,Scattered Clouds,210,2013-02-01 20:35:00
2:55 PM,21.6,7.7,55,30.42,10.0,SSW,10.4,-,N/A,,Clear,200,2013-02-01 20:55:00
3:35 PM,21.9,9.1,58,30.42,10.0,SSW,12.7,-,N/A,,Scattered Clouds,200,2013-02-01 21:35:00
3:55 PM,22.1,9.3,58,30.41,10.0,SSW,11.5,-,N/A,,Scattered Clouds,210,2013-02-01 21:55:00
4:15 PM,21.9,7.9,55,30.41,10.0,SSW,10.4,18.4,N/A,,Scattered Clouds,210,2013-02-01 22:15:00
4:35 PM,21.7,8.6,57,30.40,10.0,South,6.9,-,N/A,,Clear,180,2013-02-01 22:35:00
4:55 PM,21.0,8.1,57,30.39,10.0,South,8.1,-,N/A,,Clear,190,2013-02-01 22:55:00
5:15 PM,20.3,9.3,63,30.37,10.0,SSE,8.1,-,N/A,,Clear,150,2013-02-01 23:15:00
5:35 PM,20.8,9.0,60,30.38,10.0,South,8.1,-,N/A,,Mostly Cloudy,170,2013-02-01 23:35:00
5:55 PM,21.2,9.3,60,30.39,10.0,SSW,8.1,-,N/A,,Overcast,200,2013-02-01 23:55:00
6:15 PM,21.2,9.3,60,30.39,10.0,South,8.1,-,N/A,,Overcast,180,2013-02-02 00:15:00
6:35 PM,21.7,9.3,59,30.39,10.0,South,9.2,-,N/A,,Overcast,170,2013-02-02 00:35:00
6:55 PM,21.9,10.4,61,30.40,10.0,South,8.1,-,N/A,,Overcast,190,2013-02-02 00:55:00
7:15 PM,22.1,10.4,61,30.39,10.0,South,9.2,-,N/A,,Overcast,180,2013-02-02 01:15:00
7:35 PM,22.1,10.8,62,30.38,10.0,South,5.8,-,N/A,,Overcast,170,2013-02-02 01:35:00
7:55 PM,21.6,11.3,65,30.37,10.0,SSE,8.1,-,N/A,,Mostly Cloudy,160,2013-02-02 01:55:00
8:15 PM,21.0,11.7,67,30.36,10.0,SSE,5.8,-,N/A,,Clear,160,2013-02-02 02:15:00
8:35 PM,20.8,11.8,68,30.36,10.0,SSE,4.6,-,N/A,,Clear,150,2013-02-02 02:35:00
8:55 PM,20.3,12.9,73,30.35,10.0,SE,4.6,-,N/A,,Clear,140,2013-02-02 02:55:00
9:15 PM,20.3,13.5,75,30.34,10.0,SE,5.8,-,N/A,,Clear,140,2013-02-02 03:15:00
9:35 PM,20.7,13.3,73,30.33,10.0,SE,5.8,-,N/A,,Clear,130,2013-02-02 03:35:00
9:55 PM,21.0,13.6,73,30.32,10.0,SSE,6.9,-,N/A,,Scattered Clouds,150,2013-02-02 03:55:00
10:15 PM,22.1,13.6,70,30.32,10.0,SSE,9.2,-,N/A,,Overcast,150,2013-02-02 04:15:00
10:35 PM,22.8,14.2,69,30.31,10.0,SSE,9.2,-,N/A,,Overcast,160,2013-02-02 04:35:00
10:55 PM,23.0,14.5,70,30.31,10.0,SSE,8.1,-,N/A,,Overcast,150,2013-02-02 04:55:00
11:15 PM,23.7,15.1,70,30.30,10.0,SSE,9.2,-,N/A,,Overcast,160,2013-02-02 05:15:00
11:35 PM,23.9,15.6,71,30.30,10.0,SSE,8.1,-,N/A,,Overcast,160,2013-02-02 05:35:00
11:55 PM,24.4,16.3,71,30.29,10.0,South,8.1,-,N/A,,Overcast,170,2013-02-02 05:55:00